| time (UTC) | temp C | wind direction | speed KPH | gust KPH | rain 1hr cm | rain 24hr cm | rain mn cm | humidity % | barometer mb |
| 20260508144624 | 17 | 94 | 1.6 | 6.4 | 0.00 | 0.15 | 0.00 | 41 | 1018.0 |
| 20260508143111 | 16 | 65 | 1.6 | 4.8 | 0.00 | 0.15 | 0.00 | 45 | 1018.0 |
| 20260508141602 | 16 | 24 | 0.0 | 3.2 | 0.00 | 0.15 | 0.00 | 43 | 1017.8 |
| 20260508140056 | 16 | 39 | 3.2 | 4.8 | 0.00 | 0.15 | 0.00 | 43 | 1017.7 |
| 20260508134559 | 16 | 175 | 1.6 | 3.2 | 0.00 | 0.15 | 0.00 | 47 | 1017.9 |
| 20260508133120 | 15 | 139 | 1.6 | 3.2 | 0.00 | 0.15 | 0.00 | 53 | 1017.6 |
| 20260508131555 | 15 | 128 | 1.6 | 4.8 | 0.00 | 0.15 | 0.00 | 48 | 1017.5 |
| 20260508130055 | 15 | 184 | 0.0 | 3.2 | 0.00 | 0.15 | 0.00 | 52 | 1017.6 |
| 20260508124558 | 14 | 207 | 0.0 | 3.2 | 0.00 | 0.36 | 0.00 | 55 | 1017.6 |
| 20260508123111 | 13 | 33 | 0.0 | 1.6 | 0.00 | 0.36 | 0.00 | 67 | 1017.5 |
| 20260508121554 | 13 | 349 | 0.0 | 3.2 | 0.00 | 0.36 | 0.00 | 68 | 1017.3 |
| 20260508120059 | 12 | 0 | 0.0 | 3.2 | 0.00 | 0.36 | 0.00 | 61 | 1017.1 |
| 20260508114552 | 11 | 85 | 0.0 | 1.6 | 0.00 | 0.69 | 0.00 | 63 | 1016.9 |
| 20260508113112 | 10 | 101 | 0.0 | 3.2 | 0.00 | 0.69 | 0.00 | 65 | 1016.5 |
| 20260508111605 | 10 | 80 | 0.0 | 3.2 | 0.00 | 0.69 | 0.00 | 67 | 1016.4 |
| 20260508110059 | 9 | 89 | 1.6 | 3.2 | 0.00 | 0.69 | 0.00 | 70 | 1016.3 |
| 20260508104555 | 9 | 84 | 1.6 | 1.6 | 0.00 | 0.69 | 0.00 | 70 | 1016.0 |
| 20260508103100 | 8 | 84 | 1.6 | 3.2 | 0.00 | 0.69 | 0.00 | 74 | 1015.6 |
| 20260508101607 | 8 | 75 | 1.6 | 3.2 | 0.00 | 0.69 | 0.00 | 82 | 1015.5 |
| 20260508100055 | 8 | 127 | 1.6 | 3.2 | 0.00 | 0.69 | 0.00 | 82 | 1015.5 |
| 20260508094553 | 8 | 99 | 1.6 | 3.2 | 0.00 | 0.69 | 0.00 | 81 | 1015.4 |
| 20260508093052 | 8 | 136 | 1.6 | 3.2 | 0.00 | 0.69 | 0.00 | 84 | 1015.3 |
| 20260508091606 | 8 | 87 | 1.6 | 1.6 | 0.00 | 0.69 | 0.00 | 85 | 1015.1 |
| 20260508090109 | 8 | 89 | 1.6 | 1.6 | 0.00 | 0.69 | 0.00 | 85 | 1015.0 |
| 20260508084553 | 8 | 93 | 0.0 | 3.2 | 0.00 | 0.69 | 0.00 | 84 | 1015.0 |
| 20260508083057 | 8 | 72 | 1.6 | 1.6 | 0.00 | 0.69 | 0.00 | 82 | 1015.0 |
| 20260508081604 | 9 | 85 | 1.6 | 1.6 | 0.00 | 0.69 | 0.00 | 80 | 1014.8 |
| 20260508080055 | 8 | 94 | 1.6 | 3.2 | 0.00 | 0.69 | 0.00 | 83 | 1014.8 |
| 20260508074555 | 8 | 84 | 0.0 | 3.2 | 0.00 | 0.69 | 0.00 | 83 | 1014.6 |
| 20260508073108 | 9 | 91 | 0.0 | 1.6 | 0.00 | 0.69 | 0.00 | 82 | 1014.6 |
| 20260508071603 | 9 | 101 | 0.0 | 0.0 | 0.00 | 0.69 | 0.00 | 81 | 1014.6 |
| 20260508070053 | 9 | 0 | 0.0 | 0.0 | 0.00 | 0.69 | 0.00 | 82 | 1014.5 |
| 20260508064557 | 9 | 0 | 0.0 | 1.6 | 0.00 | 0.74 | 0.00 | 82 | 1014.4 |
| 20260508063053 | 10 | 0 | 0.0 | 1.6 | 0.00 | 0.74 | 0.00 | 81 | 1014.4 |
| 20260508061555 | 9 | 0 | 0.0 | 1.6 | 0.00 | 0.74 | 0.00 | 82 | 1014.4 |
| 20260508060055 | 10 | 97 | 0.0 | 1.6 | 0.00 | 0.74 | 0.00 | 80 | 1014.5 |
| 20260508054556 | 10 | 113 | 0.0 | 1.6 | 0.00 | 0.79 | 0.00 | 80 | 1014.4 |
| 20260508053116 | 10 | 0 | 0.0 | 1.6 | 0.00 | 0.79 | 0.00 | 81 | 1014.3 |
| 20260508051552 | 10 | 0 | 0.0 | 1.6 | 0.00 | 0.79 | 0.00 | 81 | 1014.2 |
| 20260508050057 | 11 | 0 | 0.0 | 1.6 | 0.00 | 0.79 | 0.00 | 77 | 1014.0 |
| 20260508044556 | 11 | 0 | 0.0 | 1.6 | 0.00 | 0.84 | 0.00 | 76 | 1013.8 |
| 20260508043103 | 11 | 146 | 0.0 | 1.6 | 0.00 | 0.84 | 0.00 | 77 | 1013.9 |
| 20260508041615 | 10 | 146 | 0.0 | 1.6 | 0.00 | 0.84 | 0.00 | 79 | 1013.8 |
| 20260508040107 | 10 | 0 | 0.0 | 0.0 | 0.00 | 0.84 | 0.00 | 81 | 1013.8 |
| 20260508034551 | 10 | 0 | 0.0 | 1.6 | 0.00 | 0.84 | 0.84 | 79 | 1013.7 |
| 20260508033054 | 11 | 0 | 0.0 | 1.6 | 0.00 | 0.84 | 0.84 | 77 | 1013.6 |
| 20260508031554 | 10 | 0 | 0.0 | 1.6 | 0.00 | 0.84 | 0.84 | 78 | 1013.5 |
| 20260508030054 | 11 | 0 | 0.0 | 0.0 | 0.00 | 0.84 | 0.84 | 77 | 1013.6 |
| 20260508024604 | 11 | 0 | 0.0 | 0.0 | 0.00 | 0.97 | 0.84 | 77 | 1013.3 |
| 20260508023054 | 11 | 0 | 0.0 | 0.0 | 0.00 | 0.97 | 0.84 | 77 | 1013.2 |
| 20260508021552 | 11 | 0 | 0.0 | 0.0 | 0.00 | 0.97 | 0.84 | 76 | 1013.0 |
| 20260508020054 | 12 | 0 | 0.0 | 0.0 | 0.00 | 0.97 | 0.84 | 72 | 1012.8 |
| 20260508014551 | 12 | 0 | 0.0 | 0.0 | 0.00 | 1.04 | 0.84 | 71 | 1012.4 |
| 20260508013052 | 12 | 0 | 0.0 | 0.0 | 0.00 | 1.04 | 0.84 | 67 | 1012.2 |
| 20260508011558 | 13 | 158 | 0.0 | 0.0 | 0.00 | 1.04 | 0.84 | 65 | 1012.0 |
| 20260508010052 | 14 | 0 | 0.0 | 1.6 | 0.00 | 1.04 | 0.84 | 62 | 1011.6 |
| 20260508004557 | 15 | 74 | 0.0 | 4.8 | 0.00 | 1.14 | 0.84 | 59 | 1011.5 |
| 20260508003105 | 15 | 97 | 8.0 | 11.3 | 0.00 | 1.14 | 0.84 | 58 | 1011.1 |
| 20260508001552 | 15 | 64 | 4.8 | 11.3 | 0.00 | 1.14 | 0.84 | 60 | 1011.1 |
| 20260508000052 | 16 | 82 | 6.4 | 14.5 | 0.00 | 1.14 | 0.84 | 59 | 1011.3 |
| 20260507234554 | 16 | 70 | 6.4 | 17.7 | 0.00 | 1.14 | 0.84 | 60 | 1011.2 |
| 20260507233102 | 17 | 72 | 9.7 | 16.1 | 0.00 | 1.14 | 0.84 | 60 | 1011.0 |
| 20260507231557 | 17 | 60 | 8.0 | 12.9 | 0.00 | 1.14 | 0.84 | 63 | 1010.7 |
| 20260507230059 | 17 | 108 | 3.2 | 8.0 | 0.00 | 1.14 | 0.84 | 66 | 1010.6 |
| 20260507224558 | 17 | 139 | 0.0 | 1.6 | 0.00 | 1.14 | 0.84 | 80 | 1010.2 |
| 20260507223056 | 17 | 132 | 1.6 | 8.0 | 0.00 | 1.14 | 0.84 | 81 | 1009.8 |
| 20260507221553 | 17 | 219 | 1.6 | 8.0 | 0.00 | 1.14 | 0.84 | 82 | 1009.4 |
| 20260507220056 | 17 | 325 | 3.2 | 9.7 | 0.00 | 1.14 | 0.84 | 82 | 1009.2 |
| 20260507214604 | 17 | 26 | 1.6 | 8.0 | 0.00 | 1.14 | 0.84 | 83 | 1009.2 |
| 20260507213104 | 17 | 107 | 1.6 | 6.4 | 0.00 | 1.14 | 0.84 | 82 | 1009.0 |
| 20260507211554 | 17 | 221 | 1.6 | 6.4 | 0.00 | 1.14 | 0.84 | 82 | 1008.8 |
| 20260507210059 | 17 | 315 | 3.2 | 8.0 | 0.00 | 1.14 | 0.84 | 81 | 1008.6 |
| 20260507204553 | 18 | 86 | 1.6 | 14.5 | 0.00 | 1.14 | 0.84 | 81 | 1008.6 |
| 20260507203051 | 18 | 335 | 1.6 | 11.3 | 0.00 | 1.14 | 0.84 | 81 | 1008.1 |
| 20260507201554 | 18 | 125 | 3.2 | 9.7 | 0.00 | 1.14 | 0.84 | 81 | 1007.8 |
| 20260507200057 | 18 | 201 | 4.8 | 19.3 | 0.00 | 1.14 | 0.84 | 81 | 1008.1 |
| 20260507194617 | 18 | 35 | 6.4 | 14.5 | 0.05 | 1.14 | 0.84 | 82 | 1007.8 |
| 20260507193055 | 18 | 120 | 4.8 | 12.9 | 0.15 | 1.14 | 0.84 | 84 | 1007.9 |
| 20260507191554 | 20 | 123 | 6.4 | 11.3 | 0.15 | 1.14 | 0.84 | 78 | 1008.3 |
| 20260507190057 | 21 | 213 | 0.0 | 1.6 | 0.15 | 1.14 | 0.84 | 87 | 1007.9 |
| 20260507184556 | 21 | 211 | 0.0 | 6.4 | 0.10 | 1.09 | 0.79 | 83 | 1007.7 |
| 20260507183056 | 22 | 352 | 1.6 | 6.4 | 0.00 | 0.99 | 0.69 | 70 | 1007.9 |
| 20260507181558 | 22 | 353 | 1.6 | 6.4 | 0.00 | 0.99 | 0.69 | 71 | 1007.8 |
| 20260507180052 | 22 | 304 | 1.6 | 9.7 | 0.00 | 0.99 | 0.69 | 71 | 1007.8 |
| 20260507174602 | 22 | 243 | 1.6 | 6.4 | 0.00 | 1.02 | 0.69 | 71 | 1007.9 |
| 20260507173132 | 22 | 89 | 1.6 | 8.0 | 0.00 | 1.02 | 0.69 | 73 | 1007.9 |
| 20260507171608 | 22 | 345 | 3.2 | 9.7 | 0.00 | 1.02 | 0.69 | 73 | 1008.1 |
| 20260507170110 | 22 | 62 | 4.8 | 14.5 | 0.00 | 1.02 | 0.69 | 74 | 1008.4 |
| 20260507164559 | 21 | 115 | 1.6 | 6.4 | 0.00 | 1.07 | 0.69 | 79 | 1008.7 |
| 20260507163054 | 20 | 18 | 3.2 | 4.8 | 0.00 | 1.07 | 0.69 | 79 | 1008.8 |
| 20260507161604 | 21 | 216 | 1.6 | 8.0 | 0.00 | 1.07 | 0.69 | 81 | 1009.1 |
| 20260507160058 | 20 | 6 | 1.6 | 3.2 | 0.00 | 1.07 | 0.69 | 85 | 1008.8 |
| 20260507154554 | 19 | 33 | 1.6 | 4.8 | 0.00 | 1.07 | 0.69 | 89 | 1008.6 |
| 20260507153101 | 19 | 0 | 1.6 | 4.8 | 0.00 | 1.07 | 0.69 | 89 | 1008.8 |
| 20260507151556 | 18 | 332 | 0.0 | 3.2 | 0.00 | 1.07 | 0.69 | 90 | 1009.2 |
| 20260507150100 | 18 | 185 | 1.6 | 4.8 | 0.00 | 1.07 | 0.69 | 93 | 1009.1 |